When you browse on this site, cookies collect data to enhance your experience and personalize the content and advertising you see.
Visit our Privacy Policy to learn more. By continuing to use the site, you agree to this use of cookies and data.
  • In Belgium
  • List of Countries
  • For 7 days
  • Water Temperature
  • Satellite Maps
  • Weather Map
  • Weather Widgets
  • user-avatar
    Login

    Hourly Weather Zelenchukskaya

    Today, 11 December, Tuesday

    Time Temperature Precipitation Wind Pressure Humidity
    00:00 +4°C° 0 mm 2 mps 675 mmHg 68%
    01:00 +4°C° 0 mm 2 mps 675 mmHg 69%
    02:00 +4°C° 0 mm 2 mps 674 mmHg 69%
    03:00 +3°C° 0 mm 2 mps 674 mmHg 73%
    04:00 +4°C° 0 mm 2 mps 674 mmHg 72%
    05:00 +4°C° 0 mm 2 mps 673 mmHg 72%
    06:00 +3°C° 0 mm 3 mps 673 mmHg 71%
    07:00 +4°C° 0 mm 3 mps 673 mmHg 70%
    08:00 +4°C° 0 mm 3 mps 672 mmHg 69%
    09:00 +4°C° 0 mm 3 mps 672 mmHg 68%
    10:00 +7°C° 0 mm 3 mps 672 mmHg 65%
    11:00 +8°C° 0 mm 3 mps 671 mmHg 63%
    12:00 +10°C° 0 mm 3 mps 671 mmHg 60%
    13:00 +9°C° 0.8 mm 3 mps 671 mmHg 64%
    14:00 +8°C° 0.8 mm 3 mps 671 mmHg 69%
    15:00 +7°C° 0.8 mm 3 mps 671 mmHg 73%
    16:00 +7°C° 0.9 mm 3 mps 672 mmHg 75%
    17:00 +7°C° 0.9 mm 3 mps 672 mmHg 77%
    18:00 +5°C° 0.9 mm 3 mps 672 mmHg 79%
    19:00 +5°C° 0.2 mm 4 mps 673 mmHg 74%
    20:00 +5°C° 0.2 mm 4 mps 673 mmHg 69%
    21:00 +5°C° 0.2 mm 4 mps 673 mmHg 65%
    22:00 +4°C° 0.2 mm 4 mps 674 mmHg 65%
    23:00 +4°C° 0.2 mm 4 mps 674 mmHg 66%

    Tomorrow, 12 December, Wednesday

    Time Temperature Precipitation Wind Pressure Humidity
    00:00 +4°C° 0.2 mm 4 mps 675 mmHg 67%
    01:00 +3°C° 0.1 mm 4 mps 675 mmHg 68%
    02:00 +3°C° 0.1 mm 4 mps 675 mmHg 69%
    03:00 +2°C° 0.1 mm 3 mps 675 mmHg 70%
    04:00 +2°C° 0 mm 3 mps 675 mmHg 71%
    05:00 +1°C° 0 mm 3 mps 675 mmHg 72%
    06:00 +1°C° 0 mm 3 mps 675 mmHg 72%
    07:00 +2°C° 0 mm 2 mps 675 mmHg 70%
    08:00 +2°C° 0 mm 2 mps 675 mmHg 68%
    09:00 +2°C° 0 mm 2 mps 675 mmHg 66%
    10:00 +4°C° 0 mm 1 mps 675 mmHg 64%
    11:00 +5°C° 0 mm 1 mps 674 mmHg 62%
    12:00 +6°C° 0 mm 1 mps 674 mmHg 60%
    13:00 +6°C° 0.1 mm 1 mps 674 mmHg 65%
    14:00 +5°C° 0.1 mm 1 mps 674 mmHg 70%
    15:00 +5°C° 0.1 mm 1 mps 674 mmHg 76%
    16:00 +4°C° 0.1 mm 1 mps 674 mmHg 80%
    17:00 +4°C° 0.1 mm 1 mps 674 mmHg 84%
    18:00 +3°C° 0.1 mm 1 mps 674 mmHg 89%
    19:00 +3°C° 0.2 mm 1 mps 674 mmHg 90%
    20:00 +3°C° 0.2 mm 1 mps 674 mmHg 90%
    21:00 +3°C° 0.2 mm 1 mps 674 mmHg 91%
    22:00 +3°C° 0.2 mm 1 mps 674 mmHg 91%
    23:00 +2°C° 0.2 mm 1 mps 675 mmHg 92%

    Day after tomorrow, 13 December, Thursday

    Time Temperature Precipitation Wind Pressure Humidity
    00:00 +2°C° 0.2 mm 1 mps 675 mmHg 92%
    01:00 +2°C° 0.4 mm 1 mps 675 mmHg 93%
    02:00 +2°C° 0.4 mm 1 mps 675 mmHg 93%
    03:00 +2°C° 0.4 mm 1 mps 676 mmHg 94%
    04:00 +2°C° 0.7 mm 1 mps 676 mmHg 95%
    05:00 +2°C° 0.7 mm 1 mps 676 mmHg 95%
    06:00 +2°C° 0.7 mm 1 mps 676 mmHg 96%
    07:00 +2°C° 0.8 mm 1 mps 677 mmHg 96%
    08:00 +2°C° 0.8 mm 1 mps 678 mmHg 96%
    09:00 +2°C° 0.8 mm 1 mps 678 mmHg 96%
    10:00 +2°C° 0.6 mm 1 mps 679 mmHg 95%
    11:00 +2°C° 0.6 mm 1 mps 679 mmHg 95%
    12:00 +2°C° 0.6 mm 1 mps 679 mmHg 94%
    13:00 +2°C° 0.4 mm 1 mps 680 mmHg 94%
    14:00 +2°C° 0.4 mm 1 mps 680 mmHg 94%
    15:00 +2°C° 0.4 mm 1 mps 680 mmHg 94%
    16:00 +2°C° 0.3 mm 1 mps 681 mmHg 95%
    17:00 +1°C° 0.3 mm 1 mps 681 mmHg 95%
    18:00 +1°C° 0.3 mm 1 mps 682 mmHg 96%
    19:00 +1°C° 0.2 mm 1 mps 682 mmHg 95%
    20:00 0°C° 0.2 mm 1 mps 682 mmHg 94%
    21:00 0°C° 0.2 mm 1 mps 682 mmHg 93%
    22:00 0°C° 0.1 mm 1 mps 682 mmHg 91%
    23:00 0°C° 0.1 mm 1 mps 682 mmHg 90%

    14 December, Friday

    Time Temperature Precipitation Wind Pressure Humidity
    00:00 -1°C° 0.1 mm 1 mps 682 mmHg 88%
    01:00 -1°C° 0 mm 1 mps 683 mmHg 88%
    02:00 -1°C° 0 mm 1 mps 683 mmHg 87%
    03:00 -1°C° 0 mm 1 mps 683 mmHg 86%
    04:00 -2°C° 0 mm 1 mps 682 mmHg 85%
    05:00 -2°C° 0 mm 1 mps 682 mmHg 84%
    06:00 -3°C° 0 mm 1 mps 682 mmHg 83%
    07:00 -2°C° 0 mm 1 mps 682 mmHg 81%
    08:00 -4°C° 0 mm 2 mps 682 mmHg 79%
    09:00 -4°C° 0 mm 2 mps 682 mmHg 78%
    10:00 0°C° 0 mm 1 mps 682 mmHg 76%
    11:00 +1°C° 0 mm 1 mps 682 mmHg 73%
    12:00 +2°C° 0 mm 1 mps 682 mmHg 71%
    13:00 +2°C° 0 mm 1 mps 682 mmHg 75%
    14:00 +2°C° 0 mm 1 mps 682 mmHg 78%
    15:00 +2°C° 0 mm 1 mps 682 mmHg 81%
    16:00 +1°C° 0 mm 1 mps 682 mmHg 84%
    17:00 0°C° 0 mm 1 mps 682 mmHg 86%
    18:00 -1°C° 0 mm 1 mps 682 mmHg 89%
    19:00 -1°C° 0 mm 1 mps 683 mmHg 87%
    20:00 -1°C° 0 mm 1 mps 683 mmHg 85%
    21:00 -1°C° 0 mm 1 mps 683 mmHg 84%
    22:00 -3°C° 0 mm 2 mps 683 mmHg 82%
    23:00 -4°C° 0 mm 2 mps 683 mmHg 80%

    15 December, Saturday

    Time Temperature Precipitation Wind Pressure Humidity
    00:00 -4°C° 0 mm 2 mps 683 mmHg 79%
    01:00 -4°C° 0 mm 2 mps 683 mmHg 78%
    02:00 -3°C° 0 mm 2 mps 683 mmHg 78%
    03:00 -3°C° 0 mm 2 mps 684 mmHg 77%
    04:00 -3°C° 0 mm 2 mps 684 mmHg 77%
    05:00 -1°C° 0 mm 1 mps 684 mmHg 77%
    06:00 -1°C° 0 mm 1 mps 684 mmHg 77%
    07:00 -1°C° 0 mm 1 mps 684 mmHg 76%
    08:00 -1°C° 0 mm 1 mps 685 mmHg 76%
    09:00 0°C° 0 mm 1 mps 685 mmHg 76%
    10:00 +1°C° 0 mm 1 mps 685 mmHg 74%
    11:00 +2°C° 0 mm 1 mps 685 mmHg 72%
    12:00 +3°C° 0 mm 1 mps 685 mmHg 70%
    13:00 +3°C° 0 mm 1 mps 685 mmHg 72%
    14:00 +3°C° 0 mm 1 mps 685 mmHg 74%
    15:00 +3°C° 0 mm 1 mps 685 mmHg 76%
    16:00 +2°C° 0 mm 1 mps 685 mmHg 79%
    17:00 0°C° 0 mm 1 mps 685 mmHg 81%
    18:00 -1°C° 0 mm 1 mps 685 mmHg 83%
    19:00 -1°C° 0 mm 1 mps 685 mmHg 79%
    20:00 -1°C° 0 mm 1 mps 685 mmHg 76%
    21:00 -3°C° 0 mm 2 mps 685 mmHg 72%
    22:00 -3°C° 0 mm 2 mps 685 mmHg 69%
    23:00 -3°C° 0 mm 2 mps 685 mmHg 65%

    16 December, Sunday

    Time Temperature Precipitation Wind Pressure Humidity
    00:00 -3°C° 0 mm 2 mps 685 mmHg 62%
    01:00 -2°C° 0 mm 2 mps 685 mmHg 59%
    02:00 -2°C° 0 mm 2 mps 685 mmHg 57%
    03:00 -2°C° 0 mm 2 mps 684 mmHg 55%
    04:00 -2°C° 0 mm 2 mps 684 mmHg 55%
    05:00 -2°C° 0 mm 2 mps 684 mmHg 54%
    06:00 -2°C° 0 mm 2 mps 684 mmHg 53%
    07:00 -1°C° 0 mm 2 mps 684 mmHg 54%
    08:00 -1°C° 0 mm 2 mps 684 mmHg 55%
    09:00 +1°C° 0 mm 2 mps 684 mmHg 55%
    10:00 +3°C° 0 mm 2 mps 684 mmHg 58%
    11:00 +4°C° 0 mm 2 mps 684 mmHg 60%
    12:00 +6°C° 0 mm 2 mps 684 mmHg 63%
    13:00 +5°C° 0 mm 2 mps 683 mmHg 64%
    14:00 +5°C° 0 mm 2 mps 683 mmHg 66%
    15:00 +5°C° 0 mm 2 mps 683 mmHg 68%
    16:00 +4°C° 0 mm 2 mps 683 mmHg 68%
    17:00 +3°C° 0 mm 2 mps 683 mmHg 67%
    18:00 +2°C° 0 mm 2 mps 683 mmHg 67%
    19:00 +2°C° 0 mm 2 mps 683 mmHg 66%
    20:00 +2°C° 0 mm 2 mps 683 mmHg 66%
    21:00 +2°C° 0 mm 2 mps 683 mmHg 65%
    22:00 +2°C° 0 mm 2 mps 683 mmHg 66%
    23:00 +2°C° 0 mm 2 mps 683 mmHg 66%
    Show more